Moron de la Frontera, Spain

4:15 AM CET on December 13, 2017 (GMT +0100)
Moron Air Base

Weather History for LEMO - May, 2013

Change the Weather History Date:

Thursday, May 2, 2013

  Actual Average Record
Temperature  
Mean Temperature 62 °F -  
Max Temperature 77 °F 79 °F 90 °F (2015)
Min Temperature 46 °F 54 °F 41 °F (1998)
Degree Days  
Heating Degree Days 4    
Growing Degree Days 12 (Base 50)    
Moisture  
Dew Point 48 °F    
Average Humidity 64    
Maximum Humidity 93    
Minimum Humidity 36    
Precipitation  
Precipitation 0.00 in - - ()
Sea Level Pressure  
Sea Level Pressure 30.01 in    
Wind  
Wind Speed 4 mph ()    
Max Wind Speed 9 mph    
Max Gust Speed -    
Visibility 6.2 miles    
Events      
Averages and records for this station are not official NWS values.
T = Trace of Precipitation, MM = Missing Value Source: Averaged Metar Reports

Daily Weather History Graph

Daily Weather History Graph

Search for Another Location

Airport or City:

Trip Planner

Search our weather history database for the weather conditions in past years. The results will help you decide how hot, cold, wet, or windy it might be!

Date:

Astronomy

May. 02, 2013 Rise Set
Actual Time 7:26 AM CEST 9:12 PM CEST
Civil Twilight 6:58 AM CEST 9:40 PM CEST
Nautical Twilight 6:24 AM CEST 10:14 PM CEST
Astronomical Twilight 5:48 AM CEST 10:51 PM CEST
Moon 2:54 AM CEST (5/2) 1:56 PM CEST (5/2)
Length of Visible Light 14h 42m
Length of Day
13h 45m
Waning Gibbous, 51% of the Moon is Illuminated
May 2
Waning Gibbous
May 2
Last Quarter
May 10
New
May 18
First Quarter
May 25
Full

Hourly Weather History & Observations

Time (CEST) Temp. Windchill Dew Point Humidity Pressure Visibility Wind Dir Wind Speed Gust Speed Precip Events Conditions
12:00 AM 55.4 °F - 50.0 °F 82% 30.04 in 6.2 mi West 8.1 mph - N/A   Scattered Clouds
1:00 AM 55.4 °F - 50.0 °F 82% 30.04 in 6.2 mi West 8.1 mph - N/A   Scattered Clouds
2:00 AM 51.8 °F - 44.6 °F 76% 30.04 in 6.2 mi West 8.1 mph - N/A   Scattered Clouds
3:00 AM 50.0 °F - 44.6 °F 82% 30.01 in 6.2 mi SSE 2.3 mph - N/A   Scattered Clouds
4:00 AM 50.0 °F - 44.6 °F 82% 30.01 in 6.2 mi SSE 2.3 mph - N/A   Scattered Clouds
5:00 AM 50.0 °F - 44.6 °F 82% 29.98 in 6.2 mi East 1.2 mph - N/A   Scattered Clouds
6:00 AM 50.0 °F - 44.6 °F 82% 29.98 in - North 1.2 mph - N/A   Clear
7:00 AM 46.4 °F - 44.6 °F 93% 30.01 in - North 1.2 mph - N/A   Clear
8:00 AM 46.4 °F 45.2 °F 44.6 °F 93% 30.01 in - ESE 3.5 mph - N/A   Clear
9:00 AM 55.4 °F - 50.0 °F 82% 30.01 in - Variable 1.2 mph - N/A   Clear
10:00 AM 59.0 °F - 50.0 °F 72% 30.04 in - North 4.6 mph - N/A   Clear
11:00 AM 64.4 °F - 50.0 °F 59% 30.04 in - NNE 5.8 mph - N/A   Clear
12:00 PM 68.0 °F - 50.0 °F 52% 30.04 in - ENE 3.5 mph - N/A   Clear
1:00 PM 73.4 °F - 48.2 °F 41% 30.04 in 6.2 mi East 3.5 mph - N/A   Partly Cloudy
2:00 PM 73.4 °F - 48.2 °F 41% 30.01 in 6.2 mi NNE 4.6 mph - N/A   Partly Cloudy
4:00 PM 75.2 °F - 46.4 °F 36% 29.98 in 6.2 mi NNW 3.5 mph - N/A   Scattered Clouds
5:00 PM 75.2 °F - 46.4 °F 36% 29.98 in 6.2 mi Variable 2.3 mph - N/A   Scattered Clouds
6:00 PM 77.0 °F - 48.2 °F 36% 29.98 in 6.2 mi Variable 1.2 mph - N/A   Scattered Clouds
7:00 PM 75.2 °F - 46.4 °F 36% 29.98 in - Calm Calm - N/A   Clear
8:00 PM 77.0 °F - 48.2 °F 36% 29.98 in - Calm Calm - N/A   Clear
9:00 PM 73.4 °F - 48.2 °F 41% 29.98 in - Variable 2.3 mph - N/A   Clear
10:00 PM 64.4 °F - 53.6 °F 68% 30.01 in - WSW 9.2 mph - N/A   Clear
11:00 PM 60.8 °F - 51.8 °F 72% 30.04 in - SSW 5.8 mph - N/A   Clear